Location: Newark
(51.2625°N, 13.3939°E)
Time: 08:49:11
(UTC+00:00)

Transit 2A Rocket - Pass Details

Date: 26 January 2021
Orbit: 594 x 909 km, 66.7° (Epoch: 24 February)

Event Time Altitude Azimuth Distance (km) Brightness Sun altitude
Rises 16:27:45 0° 319° (NW) 3,030 8.4 -6.7°
Reaches altitude 10° 16:31:04 10° 342° (NNW) 2,055 7.2 -7.2°
Maximum altitude 16:33:46 15° 18° (NNE) 1,694 6.5 -7.6°
Drops below altitude 10° 16:36:23 10° 54° (NE) 1,978 6.5 -7.9°
Enters shadow 16:36:35 - 57° (ENE) 2,023 6.6 -8.0°
